Wind_Speed
20 20 20 19 19 17 16 16 17 18 19 19 18 17 17 16 16 16 15 14 14 15 17 17 18 18 19 20 21 20 19 18 17 16 16 17 17 17 16 16 16 17 17 16 16 16 16 16 16 16 16 16 16 16 16 15 13 12 10 9 9 10 10 11 12 13 14 15 16 17 18 19 19 20 21 21 21 21 21 21 21 21 22 23 23
20 19 18 17 18 17 16 17 18 18 18 17 17 18 17 16 16 15 14 13 13 13 14 16 18 18 18 19 20 21 21 22 21 21 20 19 19 19 18 18 18 18 18 17 17 17 17 17 16 16 15 15 15 15 14 13 13 12 11 10 11 11 11 12 12 14 15 16 17 18 19 20 20 21 23 23 23 23 23 23 23 23 23 24 24
21 20 19 17 18 17 17 17 17 17 17 18 19 19 19 18 17 17 16 15 14 13 13 15 17 18 18 17 18 19 21 23 24 25 23 22 21 20 19 19 19 19 18 17 17 17 17 16 16 15 15 15 14 14 13 12 12 12 12 12 12 13 13 14 15 16 17 18 18 19 20 20 21 22 23 24 24 24 24 24 24 25 25 26 27
23 22 21 19 18 17 16 16 17 17 18 20 21 20 20 20 19 19 18 18 17 15 14 15 18 20 20 20 19 20 21 22 24 25 24 22 21 20 19 19 18 18 18 17 17 16 16 15 16 16 16 15 14 12 12 11 11 11 12 13 14 15 16 17 18 18 18 18 19 19 20 21 22 23 23 24 24 25 25 26 26 27 27 28 29
24 24 24 22 19 18 17 17 18 19 20 22 23 23 21 22 21 20 20 21 20 18 17 18 19 21 23 22 21 20 20 21 22 23 22 21 20 19 19 18 18 18 18 17 16 16 16 16 17 16 15 14 13 12 12 12 13 13 14 15 15 16 16 16 17 17 17 17 18 19 20 21 22 23 24 25 25 26 27 28 29 29 29 30 31
23 25 26 24 22 21 19 19 20 20 22 24 26 25 24 23 23 23 23 23 23 21 19 19 20 21 22 22 21 20 20 20 20 20 20 19 19 18 18 18 18 18 17 17 17 17 17 17 17 16 14 14 13 14 14 15 16 17 17 17 16 15 15 15 15 15 15 16 18 19 20 21 22 23 24 25 26 27 28 29 29 29 30 30 31
23 25 26 25 24 23 23 22 21 21 22 25 28 29 29 26 25 24 25 25 23 21 21 20 20 21 21 21 20 20 19 19 20 20 19 19 18 18 18 18 18 18 18 18 18 18 18 18 17 17 16 16 16 16 17 18 18 19 19 18 18 17 16 16 15 16 17 19 20 21 22 23 24 25 25 26 27 27 28 28 29 30 30 31 31
24 25 25 25 25 26 26 24 23 24 25 26 28 30 31 31 28 25 25 25 23 22 22 21 20 19 19 20 20 20 20 20 20 20 20 19 19 19 19 19 19 19 19 19 19 20 20 20 20 19 19 18 18 18 19 19 19 20 20 20 20 19 19 19 19 20 21 22 23 24 25 26 26 27 27 28 29 29 29 29 30 30 31 32 32
25 25 24 25 26 27 26 24 24 26 29 30 29 29 32 36 34 29 26 25 23 22 21 20 19 18 18 19 20 21 21 21 22 22 22 22 22 22 21 21 21 21 21 21 22 22 22 22 21 21 21 21 20 20 20 20 20 21 22 22 22 22 23 23 24 25 26 26 26 26 27 27 28 29 30 31 32 33 33 32 32 32 33 34 34
26 24 23 25 27 27 25 23 22 23 26 29 29 28 31 34 35 34 31 27 23 22 21 19 18 16 16 17 18 20 22 22 23 24 24 25 24 24 24 24 24 23 23 24 24 24 24 24 24 24 24 24 23 22 22 23 24 24 25 25 25 25 26 27 28 29 29 29 29 29 29 30 31 31 31 32 33 35 36 36 35 35 36 36 36
23 22 21 22 23 24 24 22 19 17 18 20 20 20 21 21 23 27 27 23 21 20 20 19 17 15 14 16 17 19 21 23 24 25 26 26 26 26 26 25 25 25 25 25 26 26 26 26 26 27 27 26 26 26 27 28 28 28 27 27 27 27 27 28 29 30 30 31 32 32 32 33 34 35 34 35 36 37 38 38 37 38 38 38 38
19 19 19 18 18 19 21 20 18 18 18 16 15 15 14 13 14 17 19 18 18 19 19 19 18 16 16 17 19 21 23 24 25 26 26 27 27 27 27 27 27 27 27 27 28 28 28 28 28 28 28 29 29 30 31 31 31 30 30 30 30 30 30 30 31 32 33 34 35 35 36 36 37 38 38 39 39 39 39 39 39 40 41 40 40
19 21 21 20 19 19 20 20 19 18 17 16 15 13 14 14 14 14 15 15 16 17 18 19 20 19 18 19 20 22 24 25 26 26 26 26 27 27 28 29 29 29 29 30 30 30 29 29 29 29 30 31 32 33 34 34 34 34 35 35 35 35 35 35 35 35 35 35 36 37 38 39 40 41 41 42 43 43 42 41 41 43 43 42 42
22 23 23 23 22 20 18 18 18 17 17 17 15 14 16 16 14 13 14 15 16 17 18 19 21 20 20 20 20 22 24 26 27 27 27 27 27 28 29 29 30 31 31 31 31 31 31 31 32 33 34 35 36 37 37 38 38 38 38 39 39 40 40 40 40 40 39 38 38 39 39 41 42 43 45 46 45 44 44 43 44 45 44 44 45
24 25 24 23 21 19 17 16 17 18 17 16 15 14 16 17 16 16 16 18 21 20 20 21 23 22 22 21 22 24 24 26 28 29 29 29 29 29 29 29 30 31 31 32 32 33 33 34 35 36 37 38 39 39 40 40 40 41 41 41 42 43 43 44 44 44 43 43 43 43 43 44 45 46 47 48 46 44 44 46 46 45 45 46 47
26 25 24 22 20 19 18 17 18 18 16 16 17 17 18 18 17 18 19 21 24 24 23 24 25 26 26 26 26 27 27 28 29 30 31 32 31 31 31 31 32 33 34 34 34 35 36 38 39 39 40 41 42 42 43 43 43 43 43 43 44 45 46 46 46 46 46 45 45 46 46 47 48 47 47 47 45 43 44 46 45 45 47 48 48
27 26 25 24 23 22 20 19 20 19 18 18 20 21 22 21 21 22 23 24 26 27 27 28 29 30 31 31 31 31 30 31 32 33 34 35 35 35 35 36 36 37 36 36 36 38 41 43 43 44 45 45 46 46 47 46 46 45 45 46 47 47 48 47 46 46 46 46 47 47 48 49 49 48 47 47 47 47 48 48 46 46 48 48 49
27 26 25 24 23 22 22 22 22 22 22 22 22 23 25 25 25 26 27 27 27 29 31 32 33 34 35 35 35 34 34 34 35 36 36 37 38 38 39 40 41 40 40 40 41 43 45 47 48 48 49 50 50 51 51 51 50 50 49 49 49 49 49 48 47 46 46 47 48 48 49 50 50 49 47 46 47 49 49 47 47 49 51 53 54
26 25 24 23 23 23 23 23 23 23 23 24 25 27 28 29 30 31 31 31 30 30 32 34 36 36 37 37 37 37 38 38 39 40 40 40 40 41 42 43 44 45 46 47 48 49 49 50 51 52 53 54 55 55 55 54 54 54 53 52 51 50 50 49 49 48 48 49 49 50 51 51 52 51 48 47 49 52 51 50 53 57 58 57 56
27 27 26 25 24 24 24 25 25 26 27 28 29 30 30 31 32 33 34 35 34 34 36 38 38 37 37 37 38 40 42 43 44 44 44 44 44 45 46 47 48 50 52 53 54 54 53 53 54 54 55 56 57 57 57 56 56 55 55 53 52 51 51 51 51 51 52 52 53 53 54 53 53 53 51 50 52 55 55 55 56 56 55 55 54
27 27 28 27 26 27 28 29 29 30 31 31 31 30 30 31 32 33 35 37 37 38 40 42 42 42 41 41 43 44 46 47 47 47 47 48 48 49 50 51 52 54 55 56 57 56 55 54 54 54 55 55 55 55 55 55 55 55 54 53 52 52 53 53 54 54 55 55 56 57 57 57 57 55 52 51 52 55 57 58 56 54 53 54 55
28 29 30 30 31 33 34 35 35 35 35 35 34 34 33 34 35 35 35 37 38 40 42 43 45 46 46 46 47 48 49 50 50 50 51 51 52 53 54 54 55 55 56 56 56 56 55 54 54 54 54 54 55 55 55 55 55 55 55 55 55 56 56 56 57 57 58 58 59 59 59 59 58 57 55 55 56 58 58 58 56 54 55 56 57
32 33 33 33 35 36 37 38 38 38 38 38 38 38 39 39 39 38 38 38 39 40 41 42 43 45 46 46 47 48 49 50 51 52 52 53 54 54 55 55 56 56 56 56 56 56 56 56 56 57 57 57 57 57 57 57 58 58 59 59 59 59 59 59 59 59 58 57 55 54 54 55 55 54 53 53 53 54 54 54 54 55 56 57 57
33 33 33 34 35 36 37 38 39 39 39 40 40 41 42 42 43 43 43 43 44 44 45 45 45 46 47 48 49 50 51 52 54 54 54 55 56 57 57 58 58 59 58 58 57 57 57 57 58 58 58 59 59 60 60 60 61 62 62 62 62 61 59 59 58 56 54 52 51 50 50 51 53 54 54 54 54 55 55 55 55 55 54 53 52
37 38 39 39 40 41 41 41 42 42 43 43 43 43 44 45 45 45 46 46 47 48 49 49 49 50 50 51 52 53 54 56 57 57 57 57 58 58 59 59 59 59 59 58 58 58 58 59 59 59 60 61 61 62 63 63 64 65 65 64 64 62 61 59 57 55 54 52 50 49 47 47 48 50 50 50 50 51 51 50 50 49 48 47 46
36 38 39 40 41 42 41 41 41 42 42 42 42 43 43 44 44 45 45 46 47 47 48 49 49 50 50 51 53 54 55 56 57 57 57 58 58 58 59 59 60 60 61 61 61 62 62 62 62 63 63 64 65 66 66 66 67 67 67 66 64 62 61 58 53 51 51 50 50 50 50 49 49 46 43 42 43 43 43 43 44 45 45 44 43
33 34 35 36 37 38 38 39 39 39 39 39 39 40 40 41 42 43 43 44 45 46 47 47 48 49 50 51 52 53 54 56 57 58 59 59 60 61 62 63 64 65 65 66 66 66 66 66 66 66 67 67 68 69 69 69 69 69 68 67 65 63 60 54 49 49 52 53 54 54 53 51 48 43 41 41 40 39 40 41 42 43 43 42 40
35 35 35 36 36 37 38 39 40 40 40 40 40 40 41 41 42 43 44 45 45 46 47 48 49 50 51 52 53 54 56 58 59 61 62 63 63 64 65 67 68 68 69 69 69 69 69 69 70 70 70 70 71 71 70 70 70 69 68 67 65 62 58 52 49 51 54 54 54 53 51 50 49 46 44 42 39 38 40 41 41 42 42 40 38
38 38 38 39 39 39 40 40 41 42 42 43 43 43 44 44 45 46 46 47 47 48 49 50 51 52 53 54 55 56 58 60 62 63 64 65 66 67 68 69 70 71 71 72 72 72 72 72 72 72 72 72 72 71 71 70 68 68 66 64 62 59 53 48 48 51 54 56 56 55 56 56 52 46 43 40 39 39 40 41 42 42 40 37 38
41 41 42 42 43 43 43 44 44 44 45 46 46 47 47 48 48 49 50 50 51 51 52 53 55 56 57 58 59 60 62 63 65 66 67 68 69 69 70 71 71 72 72 73 72 72 72 72 72 71 71 71 71 70 69 68 66 65 63 61 60 56 51 48 47 46 49 54 54 54 55 54 48 43 41 41 41 41 41 41 41 39 36 36 39
44 44 45 45 45 45 46 46 46 47 47 48 49 50 51 51 51 52 53 54 55 56 57 58 59 60 61 62 63 64 65 65 66 67 67 67 68 68 68 69 69 69 69 69 68 67 67 67 67 66 66 66 66 65 65 64 62 61 59 57 56 54 52 53 51 44 41 44 45 45 46 45 40 38 38 39 40 39 38 37 35 33 33 36 39
45 45 46 46 46 47 47 48 48 49 50 50 51 52 54 55 55 56 57 58 58 59 59 60 61 61 61 61 61 61 62 62 62 62 62 62 62 62 62 62 62 62 63 62 61 60 59 59 58 58 58 58 58 58 58 57 56 56 55 53 52 51 51 54 56 52 45 42 39 36 36 35 33 33 33 33 34 34 33 33 34 35 36 37 37
47 47 48 48 49 50 51 51 52 53 53 54 54 55 55 56 57 57 57 57 57 56 56 55 55 55 55 55 55 55 55 55 55 55 55 55 55 55 54 54 54 55 55 55 55 54 54 53 53 53 53 52 52 51 50 49 49 49 48 48 48 48 49 53 58 60 58 54 48 44 41 39 38 37 35 35 35 35 35 37 39 40 39 37 35
50 51 51 51 52 52 53 53 53 53 53 52 52 52 52 51 51 51 50 50 50 49 48 47 47 47 48 48 48 48 48 47 47 47 47 47 47 47 48 48 49 51 52 52 53 53 53 52 52 52 52 51 50 47 45 43 42 41 42 43 43 44 45 49 55 60 61 60 59 57 54 52 50 48 46 44 43 42 41 40 38 38 37 35 33
49 49 49 48 48 48 48 47 46 46 45 45 44 44 44 43 43 42 42 42 43 43 43 43 43 43 42 42 41 40 40 40 40 41 41 42 42 44 45 47 49 51 52 54 55 55 56 56 55 55 54 53 51 49 46 42 39 38 37 37 38 39 39 41 46 51 52 51 49 49 50 49 48 47 44 41 38 37 36 34 33 32 32 32 31
43 43 42 41 41 41 40 40 39 39 38 38 37 37 37 37 37 37 38 38 38 38 38 38 38 37 36 36 35 35 36 36 37 38 39 40 41 43 46 48 50 51 53 54 56 57 57 58 57 57 57 55 53 51 48 44 41 40 38 36 35 34 34 35 36 39 42 41 38 36 35 34 34 34 34 34 33 32 32 32 31 30 29 29 28
37 37 37 37 36 36 35 35 34 33 33 33 33 33 33 34 34 34 34 34 34 33 32 32 31 31 31 31 32 32 33 34 35 36 38 39 41 43 44 45 46 47 48 49 50 51 52 53 54 54 55 54 53 51 49 46 43 41 40 38 36 36 36 35 34 33 34 34 32 29 28 27 27 27 29 32 32 32 32 32 31 30 28 27 25
34 34 33 33 32 31 31 30 30 29 29 29 30 30 30 30 29 29 29 28 28 27 27 27 27 26 27 27 28 29 30 31 33 34 35 37 38 39 40 39 40 40 40 40 40 40 41 42 44 45 48 48 45 43 44 45 45 45 43 41 40 39 39 36 33 31 30 28 27 27 28 29 30 31 32 33 33 32 33 32 30 28 26 24 22
30 30 29 29 28 27 27 27 27 26 26 26 26 26 25 24 24 23 23 22 22 22 22 22 22 23 23 24 25 26 27 28 29 30 32 33 34 35 35 35 34 34 34 34 34 33 31 31 31 32 34 33 32 33 36 38 39 40 40 39 38 39 40 37 33 31 30 28 28 29 31 32 34 35 36 36 35 35 33 31 27 24 21 20 20
28 27 27 26 26 25 24 24 23 22 22 21 21 20 20 19 19 18 18 18 18 18 18 18 18 19 20 21 22 23 24 25 26 27 29 30 31 32 33 33 32 31 30 30 30 29 27 24 22 22 22 22 24 29 31 31 29 28 30 32 34 35 37 36 34 32 32 32 34 35 35 35 36 37 37 37 36 34 30 26 22 19 17 18 20
26 25 25 24 23 22 21 20 19 18 17 17 16 16 16 16 15 15 15 15 15 15 15 15 16 16 17 18 20 21 22 24 25 25 26 27 28 29 30 31 30 29 28 27 27 25 22 20 17 16 16 17 22 26 28 27 25 25 27 30 32 33 34 33 31 29 28 29 30 31 32 33 35 36 35 32 28 25 22 19 17 16 17 19 22
24 23 21 20 20 19 17 16 15 14 14 14 14 14 14 14 13 14 14 14 13 13 14 15 16 17 19 19 21 22 23 23 24 24 25 26 26 26 28 29 29 27 25 24 23 22 18 16 13 11 12 14 18 25 27 25 24 25 26 27 28 29 29 27 24 21 20 22 25 27 29 30 31 30 26 21 18 16 16 16 16 18 19 21 23
22 20 18 18 17 16 14 13 13 13 13 13 13 13 13 13 13 13 12 13 13 14 15 17 18 19 20 21 22 23 23 24 24 24 25 25 25 26 28 29 27 24 21 19 19 18 14 12 11 12 14 14 15 19 21 20 18 18 18 18 19 21 22 22 19 17 19 22 25 26 25 25 24 21 18 15 14 15 16 18 19 20 21 22 22
19 18 17 16 15 14 13 12 13 13 13 13 13 13 13 13 13 12 12 13 14 15 17 18 19 20 21 22 22 23 23 24 24 24 25 26 26 26 28 29 27 21 17 14 14 13 9 7 10 14 17 18 17 15 14 13 12 12 12 12 15 18 21 20 17 17 20 24 25 24 22 20 18 17 16 15 15 16 18 20 20 21 20 20 21
18 17 16 16 15 13 13 13 13 13 13 13 13 13 13 13 13 13 14 15 16 17 18 20 20 21 22 22 22 23 23 24 24 24 25 25 26 26 28 29 26 20 14 11 9 8 6 4 7 10 14 17 18 18 17 16 15 15 15 14 15 17 20 21 21 20 21 22 23 22 21 20 20 19 18 17 18 19 20 20 20 20 20 20 21
18 17 17 16 15 14 14 14 14 14 14 13 13 13 13 14 14 15 16 16 18 18 19 20 21 22 22 23 23 23 23 23 23 24 24 24 25 25 27 28 26 20 14 10 8 6 4 4 7 8 9 12 14 17 19 20 19 18 16 15 15 15 17 20 22 22 22 22 22 22 22 23 23 22 21 22 23 23 22 21 21 21 21 20 21
18 17 17 16 15 14 14 14 14 14 14 14 14 14 14 15 16 16 17 18 19 20 20 21 22 22 22 23 23 23 23 22 22 23 22 22 22 22 24 26 25 20 14 10 8 6 5 6 8 8 8 9 12 14 16 17 19 19 18 17 17 17 17 19 20 21 21 22 22 23 23 23 24 25 26 27 27 25 23 23 24 23 21 19 19
17 17 17 16 15 14 14 14 15 14 14 15 15 15 15 16 16 18 19 20 20 21 22 22 23 23 23 23 23 23 23 23 22 22 23 22 21 20 20 22 21 18 14 11 9 8 7 7 9 9 8 9 10 11 11 13 16 17 18 18 18 18 18 18 18 19 20 21 23 24 26 26 26 28 29 28 26 24 24 25 25 23 20 18 18
17 16 16 15 15 14 15 15 15 15 15 15 16 16 16 17 18 19 20 20 21 21 22 22 23 23 23 23 24 25 25 25 24 23 23 22 21 19 19 19 18 15 13 12 10 9 10 10 11 13 13 13 14 14 14 15 16 16 16 17 16 16 16 17 18 19 21 22 22 24 25 26 26 26 25 23 22 23 24 24 22 20 18 18 18
17 16 16 16 15 15 15 15 15 16 16 17 17 17 18 18 19 20 20 21 21 21 21 22 22 22 23 24 26 27 27 26 25 24 23 22 21 19 17 17 16 13 10 11 11 9 10 9 10 12 13 13 15 17 17 18 19 18 17 16 16 16 16 17 18 18 18 17 17 17 17 17 17 17 18 19 20 21 21 20 19 18 17 18 18
18 17 17 16 15 15 16 16 17 17 17 18 18 18 18 19 19 20 21 21 21 21 21 22 22 23 24 26 27 26 24 23 22 21 21 21 20 18 15 15 14 12 9 9 10 8 9 9 8 9 10 10 11 13 15 17 18 18 17 16 15 15 15 16 16 15 14 13 12 12 12 12 13 14 15 17 18 18 17 17 17 18 18 18 18
Wind_Direction
227 227 227 228 229 228 229 234 237 239 239 238 234 231 232 231 230 232 238 246 253 257 258 254 249 246 245 249 256 262 266 269 270 267 261 255 248 243 239 237 237 238 239 242 245 247 249 250 254 257 260 261 262 263 263 263 264 266 267 271 275 278 281 284 288 292 294 296 299 301 302 303 303 301 298 296 295 296 296 296 297 297 296 296 295
226 227 233 236 232 230 232 233 235 238 238 238 236 236 237 234 232 233 237 244 251 258 261 258 252 249 247 250 256 261 264 266 267 267 264 258 251 245 241 238 238 239 240 242 245 247 247 247 248 250 251 252 253 254 256 259 265 270 273 275 277 279 281 284 287 292 296 298 301 302 303 303 303 300 298 296 295 295 295 296 296 295 294 293 292
227 232 237 236 231 231 234 233 235 239 240 241 241 241 241 240 240 244 247 250 256 260 263 260 254 249 248 252 259 263 263 263 262 261 259 254 250 246 243 241 240 241 243 245 246 247 247 246 246 246 246 246 247 249 253 259 266 272 277 280 281 282 283 285 287 290 293 296 298 299 300 300 299 297 295 293 292 291 292 293 293 293 292 290 289
230 233 233 231 231 236 240 242 243 241 240 243 243 241 244 245 245 250 255 259 262 262 260 259 256 253 253 259 267 269 266 262 259 256 253 249 246 245 244 243 243 243 245 246 248 247 247 246 244 244 243 244 245 247 251 256 262 269 275 278 279 280 282 284 286 288 291 294 296 296 296 296 295 294 293 291 290 290 290 291 292 292 290 288 286
231 233 233 234 238 244 248 252 251 244 239 241 242 241 244 249 251 254 258 262 264 262 260 258 259 259 259 263 269 270 266 260 255 251 247 244 241 241 242 244 244 245 246 247 246 244 243 243 243 243 242 242 242 244 247 253 259 264 267 269 270 272 274 277 281 285 290 295 298 299 298 297 296 294 292 291 290 290 291 292 293 293 291 289 286
233 234 236 241 246 251 253 255 255 250 243 241 241 239 241 249 257 260 260 262 262 261 260 260 260 260 261 263 266 266 260 253 247 244 241 239 237 238 240 242 245 246 247 245 244 242 242 243 245 247 247 246 247 249 253 257 260 261 260 260 261 263 266 268 272 279 288 295 298 299 299 299 298 297 294 292 291 291 291 293 295 295 294 292 289
240 241 241 245 250 254 256 257 257 254 249 245 243 240 240 247 258 263 260 259 260 259 259 261 260 258 259 261 261 258 251 242 237 236 237 238 238 239 241 243 245 245 245 244 244 245 246 247 249 250 252 254 255 255 257 259 260 259 257 256 257 257 259 262 267 276 284 290 292 292 293 294 295 295 294 293 291 291 293 295 297 299 299 297 295
251 250 249 250 252 252 253 257 258 255 252 249 246 244 245 248 252 255 252 252 256 260 261 261 259 258 259 258 255 250 242 234 232 233 235 239 241 243 244 245 246 246 246 247 248 249 250 251 252 254 256 257 257 256 257 258 259 259 257 256 256 257 257 260 266 274 280 283 285 286 288 289 290 290 290 289 288 287 290 293 295 297 298 298 297
251 252 253 252 251 250 251 256 259 259 256 253 251 250 252 253 251 247 244 244 249 255 258 257 255 254 255 255 252 247 241 236 235 237 239 242 245 246 248 249 250 250 249 249 249 250 251 253 255 258 259 259 258 256 256 256 257 256 256 256 258 260 260 262 267 273 278 281 282 283 285 287 289 289 288 286 285 283 283 285 290 293 294 293 293
249 252 253 249 245 245 248 251 256 262 260 255 251 250 252 255 252 247 245 244 244 247 249 250 250 251 253 254 253 250 247 244 243 245 247 248 249 249 251 252 251 250 249 248 248 249 252 255 258 260 261 260 258 257 255 255 255 255 256 258 260 262 263 264 267 272 278 282 284 286 287 288 290 290 289 288 286 283 280 280 285 290 291 289 288
248 248 246 244 240 239 242 242 243 249 251 245 243 243 247 251 248 243 242 241 240 243 247 247 246 250 255 259 259 258 256 253 251 252 253 253 253 253 253 252 251 251 250 249 250 252 253 255 257 259 260 260 259 258 257 257 258 258 260 262 264 266 268 269 272 276 281 284 287 288 289 290 290 291 291 291 290 287 282 280 282 286 288 287 285
242 241 238 234 230 230 232 230 227 231 236 237 237 238 242 242 232 226 230 236 238 240 243 245 247 251 258 264 265 263 261 259 256 256 257 257 256 255 253 251 250 250 252 254 256 257 258 259 260 262 263 265 265 265 266 267 269 270 270 271 272 274 275 276 278 280 282 284 286 287 288 289 291 292 293 293 293 290 284 280 280 284 286 285 284
244 244 241 236 230 225 224 224 226 231 236 241 240 236 234 232 224 222 229 235 238 241 244 247 250 254 262 268 268 266 263 260 257 255 256 257 256 253 250 248 249 251 254 257 259 261 262 263 265 267 269 271 272 274 275 276 278 278 278 278 278 279 280 281 282 282 283 284 285 286 287 288 290 292 293 293 292 288 283 279 280 283 285 285 285
246 244 243 242 238 233 229 230 237 242 242 245 247 243 238 231 224 229 240 244 246 248 251 251 251 255 263 268 268 266 264 261 258 255 254 255 256 255 253 252 253 254 256 258 259 260 261 262 265 268 270 272 273 274 276 277 278 279 279 280 281 282 283 284 285 285 285 285 285 286 287 288 290 292 293 293 291 285 280 279 281 283 284 284 285
244 243 242 240 238 237 238 242 250 252 248 248 247 243 242 237 227 227 237 248 254 256 256 253 249 250 257 263 264 263 262 261 260 259 258 259 259 258 257 257 257 256 257 258 259 261 263 265 268 270 272 273 274 275 276 277 278 279 281 283 284 285 286 287 287 286 286 286 286 286 286 288 289 291 293 292 287 281 277 277 279 280 282 283 283
240 240 239 237 238 242 244 247 251 251 250 252 251 248 248 248 240 235 237 244 253 258 259 257 252 250 253 257 260 260 259 259 259 259 259 259 258 257 255 254 254 254 256 259 262 265 268 270 272 274 275 276 276 276 277 277 278 280 282 284 285 286 286 286 285 284 284 284 284 285 285 286 287 289 292 287 280 276 274 273 275 277 279 279 279
238 239 239 240 242 245 246 245 247 251 254 256 255 253 254 254 254 253 250 250 254 257 258 257 255 253 253 256 257 258 259 261 261 260 259 259 259 258 256 254 254 256 259 263 266 269 271 272 273 274 276 277 277 276 276 277 278 279 281 283 284 285 285 284 282 282 282 282 283 283 283 284 284 286 288 284 278 276 274 271 272 275 277 277 280
239 240 240 240 242 244 245 244 246 251 255 256 255 255 256 257 258 259 258 257 259 261 261 260 258 256 257 258 259 260 261 262 262 262 261 260 259 259 258 257 256 258 261 266 269 271 272 271 271 272 273 274 275 275 275 275 276 278 280 282 283 284 282 280 279 279 280 280 281 282 282 283 284 285 285 282 277 274 271 268 273 281 283 283 286
237 239 239 240 239 241 243 246 247 249 251 253 255 256 256 256 257 257 258 258 259 261 262 261 258 257 257 259 261 261 261 261 261 261 261 261 261 260 260 258 258 259 262 267 272 273 272 270 270 270 270 271 272 273 273 274 274 276 278 280 282 281 279 278 278 279 279 280 281 281 281 282 283 282 282 278 273 270 268 271 278 284 286 286 287
240 242 242 240 239 242 247 251 252 252 254 255 256 256 256 256 256 256 257 257 257 256 256 256 257 257 258 259 261 261 261 261 261 261 260 260 260 261 261 260 260 261 264 267 271 272 272 272 272 272 272 273 274 274 274 274 275 276 278 279 280 279 278 278 279 280 281 282 283 283 282 282 281 281 280 277 273 269 269 273 278 281 282 283 283
239 242 242 242 244 249 254 257 257 258 260 260 258 256 256 258 260 260 260 260 259 256 254 255 256 257 258 259 260 261 261 262 262 263 262 262 263 263 263 263 263 265 266 268 270 272 273 274 274 274 275 275 275 275 275 275 276 277 278 279 279 279 279 280 281 282 283 283 283 282 282 281 279 278 275 272 268 267 268 272 277 279 278 277 277
248 250 251 253 255 258 260 262 262 263 264 264 261 258 258 260 261 262 262 263 263 261 259 258 258 258 259 259 260 260 260 261 262 262 262 263 264 264 264 264 264 265 266 268 269 270 271 271 271 272 272 272 273 273 274 275 276 277 278 279 280 281 281 281 282 282 282 281 281 281 280 279 278 276 272 269 266 267 269 272 275 275 274 275 277
260 261 261 261 261 262 263 264 265 265 265 265 264 263 263 263 263 262 260 260 261 262 261 261 261 262 262 263 263 263 263 263 263 263 262 263 263 263 264 265 265 266 266 267 268 269 269 269 269 270 271 271 272 273 273 274 276 277 277 278 279 279 280 280 280 280 280 280 280 279 277 275 274 272 270 269 268 269 270 271 272 273 275 277 280
259 259 260 260 261 262 263 264 265 265 266 266 265 265 265 265 264 263 261 259 258 258 259 259 261 263 264 265 266 266 266 266 265 264 264 264 264 264 265 265 266 267 268 268 268 268 268 268 269 269 270 271 272 273 273 274 275 275 275 276 276 277 277 277 277 277 278 278 277 276 274 270 268 267 267 269 270 271 272 272 273 274 276 278 280
257 257 258 259 260 261 262 263 263 264 265 265 264 264 264 263 263 263 262 261 261 261 262 263 263 264 265 265 265 264 264 263 262 262 263 263 265 266 267 267 268 268 269 269 269 269 269 270 270 270 271 272 272 273 273 273 274 274 274 275 275 275 275 275 275 275 275 274 273 272 269 267 268 270 271 271 271 271 271 273 274 275 277 278 281
260 260 261 261 263 264 264 264 263 263 264 264 264 264 264 264 264 264 264 264 264 264 264 265 265 265 264 264 263 263 264 264 265 266 267 268 269 270 271 271 271 271 272 272 272 272 272 272 272 272 272 272 272 272 272 272 273 273 273 273 273 273 273 273 274 274 273 272 271 270 269 269 270 271 272 273 273 272 272 273 275 275 277 279 283
267 266 267 267 267 268 268 268 268 267 266 265 265 265 265 266 266 266 266 266 267 267 267 267 267 267 267 267 267 267 268 269 269 270 271 271 271 271 272 271 271 271 271 271 271 272 272 271 271 271 271 271 271 271 271 271 271 271 271 271 271 270 271 271 269 267 267 267 268 270 271 270 267 268 273 274 273 271 271 272 273 275 277 279 282
272 272 272 272 272 272 272 272 272 271 271 271 270 270 269 269 268 268 268 268 268 268 268 269 268 268 269 269 269 269 269 269 269 269 270 270 270 271 271 271 271 271 271 271 271 271 271 270 270 270 269 269 268 268 268 268 268 269 269 269 269 269 269 268 266 265 265 266 266 267 266 264 264 271 276 274 271 271 272 273 274 277 278 278 278
272 273 273 273 272 272 272 271 271 271 271 272 272 272 272 272 271 271 271 271 270 270 270 270 270 271 270 270 270 270 270 270 270 270 270 270 270 271 271 271 271 271 270 270 270 270 270 269 269 269 268 268 267 267 267 267 267 267 267 267 267 267 266 264 264 267 267 266 265 264 263 264 268 273 273 270 269 273 275 276 278 279 278 276 277
271 271 270 270 270 270 270 270 270 270 271 272 272 272 272 272 273 273 273 273 272 272 272 272 272 273 273 272 272 272 271 271 271 271 271 271 271 271 270 270 270 269 269 269 269 269 269 269 269 269 268 268 268 268 267 267 267 266 265 265 264 263 259 255 258 267 272 269 266 266 266 266 267 268 265 265 268 272 274 276 277 277 277 277 280
268 268 268 268 268 268 269 269 269 270 270 271 271 272 272 272 272 273 274 274 274 274 274 274 274 273 273 273 273 272 272 272 271 271 271 271 271 271 271 270 270 270 270 270 270 270 270 270 270 269 269 269 268 268 268 267 267 266 265 264 262 259 255 248 248 258 269 267 264 264 264 262 260 260 262 267 270 271 271 271 272 277 283 284 283
265 266 266 267 268 268 269 269 270 270 271 271 272 272 273 274 274 274 274 275 275 275 275 275 274 274 273 273 272 272 272 272 272 272 272 272 272 273 273 273 273 273 273 273 273 272 272 272 271 271 270 269 268 267 267 266 266 266 265 264 261 258 253 247 244 248 254 257 259 259 257 257 259 260 263 270 274 270 265 266 272 282 289 286 281
268 268 269 270 270 271 272 272 273 274 274 275 275 275 276 276 276 276 276 276 275 275 275 275 274 274 274 274 274 274 274 274 274 274 274 275 275 276 276 277 277 277 276 276 275 274 273 272 271 270 269 268 267 266 265 265 264 264 264 263 261 257 252 247 245 247 249 252 256 258 259 262 265 264 266 273 278 274 270 271 277 283 286 282 277
270 271 271 272 273 273 274 275 275 276 276 276 276 276 276 276 276 276 276 276 275 275 274 274 274 275 275 275 276 276 276 277 277 278 278 279 279 279 279 278 278 278 278 277 276 275 274 272 271 269 268 267 266 266 264 263 263 263 263 263 262 260 255 250 249 251 254 257 259 262 265 268 270 270 272 276 277 275 274 275 278 280 278 275 274
271 272 272 273 274 274 275 275 275 275 275 275 275 275 275 275 275 276 276 276 276 276 275 275 275 276 276 277 278 278 278 279 279 280 280 280 280 280 280 279 278 278 277 277 276 274 273 271 270 269 267 266 266 265 264 263 262 261 261 262 262 263 262 257 255 256 260 264 266 267 270 272 274 275 275 273 270 271 273 276 277 275 272 271 273
272 273 273 274 274 274 275 275 275 275 275 275 275 275 275 275 276 276 276 276 276 277 277 278 278 279 280 282 282 282 282 282 282 283 283 284 284 284 284 283 283 282 281 280 278 277 274 272 269 267 265 263 262 261 260 259 258 258 258 259 260 262 264 264 263 262 264 268 270 271 272 273 273 273 270 265 264 269 274 275 274 271 270 271 272
272 273 273 273 273 274 274 274 275 275 275 276 276 276 276 277 277 277 278 278 279 280 282 283 283 284 284 284 284 284 285 286 287 288 288 288 288 287 287 287 287 287 286 285 283 281 278 274 270 266 262 259 258 258 256 255 254 254 254 255 257 260 262 263 265 266 267 268 268 269 270 270 269 268 267 266 266 269 270 269 267 266 266 266 267
272 272 273 273 273 274 274 274 275 276 276 277 277 277 278 279 279 279 280 281 282 284 284 285 285 284 284 284 285 287 289 291 292 293 293 293 293 293 293 293 293 294 294 294 292 290 285 279 271 264 260 257 255 255 254 251 249 250 251 252 254 256 257 258 261 263 265 264 262 262 263 264 264 265 266 268 268 268 267 266 263 260 259 261 267
271 272 272 272 273 273 273 274 275 276 276 277 277 278 279 279 279 279 280 281 282 284 285 286 287 288 289 289 290 291 293 295 297 299 300 301 300 299 299 299 299 300 301 302 302 302 299 291 277 265 259 255 249 247 251 252 250 249 249 249 249 250 252 254 257 259 259 259 259 260 261 261 262 263 265 266 267 267 266 263 258 253 255 263 275
270 270 269 269 270 270 270 272 273 274 275 275 276 277 277 277 277 278 280 282 284 286 289 291 292 294 295 295 296 298 300 303 306 308 310 310 308 305 302 301 302 304 306 306 306 305 304 299 284 265 254 246 233 232 242 250 248 242 239 238 240 244 247 250 254 257 258 259 260 260 259 260 261 263 264 265 264 263 259 254 249 251 261 275 284
267 267 266 266 266 266 267 269 270 271 272 273 274 275 276 277 279 281 284 286 288 289 292 295 298 301 304 306 309 311 312 313 315 317 319 318 316 313 309 305 303 304 306 307 307 303 298 293 283 262 243 230 219 221 232 242 241 236 236 239 242 244 244 246 251 256 259 259 259 257 256 258 260 261 261 259 256 251 245 243 249 262 275 283 288
265 263 262 261 262 262 263 266 268 269 270 272 273 276 279 281 284 285 287 288 289 293 298 302 305 309 311 313 315 316 316 317 319 322 324 324 322 321 319 315 309 304 303 307 310 307 293 278 266 241 220 216 217 220 227 232 234 236 241 246 247 246 243 242 246 250 252 254 255 253 252 253 254 253 249 243 238 237 241 250 262 273 279 283 287
260 258 256 256 257 257 259 263 266 268 270 273 276 279 283 285 286 287 288 291 295 300 304 308 311 313 314 315 315 315 315 316 319 321 324 326 326 326 327 325 317 307 302 306 315 315 297 265 238 213 206 210 214 215 221 227 232 237 244 247 245 240 234 233 238 243 245 245 245 243 243 245 245 240 232 229 237 250 260 265 269 272 275 279 284
253 251 249 250 252 254 257 262 266 268 271 274 276 280 282 283 285 288 291 296 301 304 307 310 311 313 313 314 314 315 314 315 317 319 321 325 327 327 330 331 325 312 302 305 318 324 310 261 224 211 215 222 224 222 226 234 242 251 256 249 239 231 224 222 227 235 238 238 237 237 239 240 235 227 226 238 255 265 267 267 267 269 273 278 284
246 245 246 248 250 252 257 263 266 269 271 272 274 278 282 283 286 289 293 298 303 305 308 309 309 310 312 312 313 315 316 316 317 317 318 322 325 326 330 334 331 319 303 299 312 325 319 266 224 215 220 229 235 242 246 246 247 253 253 245 235 230 225 220 221 227 234 238 240 242 241 235 226 223 233 251 267 271 268 263 261 264 269 277 285
241 244 246 249 251 254 259 264 267 268 270 270 272 277 281 284 289 293 296 300 304 306 308 310 310 310 311 311 312 315 317 317 318 316 314 317 322 325 328 333 334 326 309 294 293 301 295 256 234 229 226 226 231 240 243 240 240 244 244 237 232 231 229 225 226 232 239 245 249 250 245 235 228 231 245 262 270 270 264 258 257 261 267 274 283
241 245 247 249 251 255 260 264 266 267 269 270 273 278 283 287 293 297 301 304 306 307 308 310 310 310 310 310 311 312 314 315 316 315 312 312 316 321 326 331 332 327 315 296 278 269 264 251 240 235 232 228 231 235 233 227 225 229 234 233 231 231 232 234 237 243 249 254 256 258 256 249 244 247 256 263 265 262 257 255 258 262 267 273 280
242 245 247 247 250 255 259 263 265 267 270 273 276 281 286 291 297 302 305 306 308 309 310 311 311 311 311 311 311 312 313 313 314 314 313 311 310 314 322 329 329 325 319 308 281 253 244 241 233 225 224 227 231 234 230 223 222 228 233 235 236 238 240 244 249 253 257 260 260 260 261 260 257 257 258 258 257 255 255 257 261 264 268 272 276
241 243 244 245 248 253 258 262 264 267 271 275 280 285 290 296 301 305 307 308 310 311 312 312 312 312 312 312 312 312 312 311 311 311 311 311 309 309 316 326 328 322 320 319 300 261 240 236 231 226 223 223 222 223 226 229 231 234 235 236 238 241 245 250 254 256 257 258 258 257 256 255 254 252 251 251 252 254 257 260 263 265 268 270 272
238 240 242 243 247 252 257 260 264 268 273 278 282 287 292 297 302 305 307 309 311 312 313 312 311 311 312 313 314 314 312 310 309 307 307 308 309 306 309 322 330 324 317 320 311 275 243 240 244 240 236 234 232 230 232 234 237 239 241 242 243 247 252 257 259 258 256 255 255 253 251 251 251 251 251 253 255 258 260 262 263 265 266 268 270
236 239 241 243 246 251 256 259 263 267 272 277 283 287 292 296 301 305 308 311 313 314 314 313 312 312 315 317 317 316 313 310 308 306 304 304 305 304 304 316 328 327 316 316 314 279 235 229 241 244 243 247 247 243 242 243 243 244 244 242 244 251 258 261 258 255 254 256 259 260 259 259 259 259 258 259 259 261 262 262 263 265 266 267 269
Height
5748 5750 5751 5752 5754 5755 5756 5758 5759 5760 5760 5761 5763 5765 5766 5767 5768 5768 5768 5769 5769 5769 5770 5771 5772 5774 5775 5776 5776 5777 5777 5778 5778 5778 5779 5779 5780 5780 5781 5781 5782 5782 5783 5783 5784 5784 5784 5785 5785 5786 5786 5786 5786 5786 5786 5785 5786 5786 5786 5786 5787 5787 5787 5787 5787 5787 5787 5786 5786 5786 5785 5785 5785 5784 5783 5783 5783 5782 5782 5782 5782 5781 5780 5780 5779
5745 5747 5748 5750 5752 5753 5754 5755 5756 5757 5759 5760 5762 5763 5764 5765 5766 5767 5767 5767 5768 5768 5768 5769 5770 5771 5773 5774 5774 5775 5775 5776 5776 5777 5777 5778 5778 5779 5779 5780 5780 5781 5781 5782 5782 5782 5782 5783 5783 5784 5784 5784 5785 5784 5784 5784 5783 5784 5784 5784 5784 5785 5785 5785 5785 5785 5785 5785 5785 5784 5784 5783 5783 5782 5781 5781 5781 5780 5780 5780 5780 5779 5778 5777 5777
5744 5745 5746 5748 5749 5751 5752 5753 5754 5756 5757 5758 5759 5760 5761 5762 5764 5765 5765 5765 5765 5765 5766 5767 5768 5769 5770 5772 5772 5773 5773 5774 5774 5775 5775 5776 5777 5777 5778 5778 5778 5779 5780 5780 5780 5781 5781 5782 5782 5782 5783 5783 5783 5783 5783 5783 5782 5782 5782 5782 5782 5783 5783 5783 5783 5783 5783 5783 5783 5782 5781 5781 5780 5780 5779 5778 5778 5778 5778 5778 5777 5777 5776 5775 5774
5742 5743 5744 5746 5747 5749 5750 5751 5752 5754 5755 5755 5756 5757 5759 5759 5761 5762 5762 5762 5763 5763 5764 5765 5766 5767 5768 5769 5770 5770 5771 5771 5772 5772 5773 5774 5774 5775 5776 5776 5777 5778 5778 5779 5780 5780 5781 5781 5781 5781 5781 5781 5782 5782 5782 5782 5781 5781 5781 5781 5781 5780 5780 5780 5780 5780 5780 5780 5780 5780 5780 5779 5778 5777 5777 5776 5776 5775 5775 5775 5775 5775 5774 5773 5772
5739 5740 5741 5743 5745 5746 5747 5748 5750 5751 5752 5752 5753 5755 5756 5757 5758 5759 5759 5759 5760 5761 5762 5762 5764 5764 5765 5766 5767 5767 5768 5769 5769 5770 5771 5771 5772 5773 5774 5774 5775 5776 5777 5777 5778 5779 5779 5779 5780 5780 5780 5780 5780 5780 5780 5780 5780 5779 5779 5779 5779 5778 5778 5778 5778 5778 5778 5778 5778 5777 5777 5777 5776 5775 5774 5774 5773 5773 5772 5772 5772 5772 5771 5771 5770
5737 5738 5739 5741 5742 5743 5744 5746 5747 5748 5749 5750 5750 5752 5753 5754 5755 5756 5757 5757 5757 5758 5759 5760 5760 5761 5762 5763 5763 5764 5765 5766 5767 5768 5769 5769 5770 5771 5771 5772 5773 5773 5774 5775 5776 5776 5777 5777 5778 5778 5778 5778 5778 5778 5778 5778 5777 5777 5777 5777 5776 5776 5776 5776 5776 5776 5776 5775 5775 5775 5774 5774 5773 5773 5772 5771 5770 5770 5769 5769 5768 5768 5768 5767 5766
5735 5736 5738 5739 5740 5741 5742 5743 5744 5746 5746 5747 5747 5748 5750 5751 5752 5753 5754 5754 5754 5755 5756 5756 5757 5758 5759 5759 5760 5761 5762 5764 5765 5766 5766 5767 5768 5768 5769 5770 5770 5771 5772 5772 5773 5774 5774 5775 5775 5776 5776 5775 5775 5775 5775 5775 5775 5774 5774 5774 5774 5774 5774 5774 5773 5773 5773 5772 5772 5772 5771 5770 5770 5769 5769 5768 5767 5766 5766 5765 5764 5764 5764 5763 5762
5733 5734 5735 5737 5738 5739 5739 5740 5741 5742 5743 5743 5744 5745 5747 5747 5748 5750 5750 5751 5751 5752 5753 5754 5754 5755 5756 5756 5757 5759 5760 5761 5762 5763 5764 5764 5765 5766 5766 5767 5767 5768 5769 5769 5770 5771 5771 5772 5772 5772 5772 5772 5772 5771 5771 5771 5771 5771 5771 5771 5771 5771 5771 5770 5770 5770 5769 5769 5768 5768 5768 5767 5766 5765 5765 5764 5763 5763 5762 5761 5760 5760 5760 5759 5758
5729 5730 5732 5733 5734 5735 5736 5737 5738 5738 5739 5740 5741 5743 5743 5743 5743 5746 5747 5747 5748 5750 5750 5751 5752 5752 5753 5753 5755 5756 5757 5759 5760 5761 5762 5762 5762 5763 5763 5764 5765 5765 5766 5766 5767 5767 5767 5768 5768 5769 5769 5768 5768 5768 5768 5768 5768 5768 5768 5768 5767 5767 5766 5766 5766 5765 5765 5764 5764 5764 5764 5763 5762 5762 5761 5760 5759 5759 5758 5757 5756 5756 5755 5754 5753
5726 5727 5729 5730 5730 5732 5733 5734 5735 5735 5735 5737 5738 5739 5740 5739 5739 5742 5744 5745 5746 5747 5748 5749 5749 5750 5750 5751 5752 5753 5755 5756 5758 5759 5759 5760 5760 5760 5760 5761 5761 5762 5762 5762 5763 5763 5764 5764 5765 5765 5765 5765 5765 5764 5764 5764 5764 5764 5764 5763 5763 5762 5762 5761 5761 5760 5760 5760 5759 5759 5759 5758 5758 5757 5757 5756 5755 5755 5754 5753 5752 5751 5750 5749 5748
5723 5725 5726 5727 5727 5729 5730 5731 5733 5733 5733 5733 5734 5735 5736 5736 5736 5738 5740 5741 5743 5745 5746 5747 5747 5747 5748 5749 5750 5751 5752 5753 5755 5756 5757 5757 5758 5758 5758 5758 5759 5759 5759 5759 5759 5760 5760 5761 5761 5761 5761 5761 5761 5761 5761 5760 5760 5760 5760 5759 5758 5757 5757 5756 5755 5755 5755 5754 5754 5754 5753 5753 5752 5752 5752 5751 5751 5750 5749 5748 5747 5746 5745 5744 5742
5721 5722 5723 5724 5725 5726 5727 5728 5729 5730 5730 5731 5732 5733 5734 5734 5734 5735 5737 5739 5741 5742 5744 5744 5745 5745 5746 5747 5748 5749 5749 5750 5752 5752 5753 5754 5754 5755 5755 5756 5756 5756 5757 5757 5757 5757 5757 5757 5757 5758 5757 5757 5757 5757 5756 5756 5756 5755 5755 5754 5754 5753 5752 5751 5751 5750 5749 5749 5749 5749 5748 5748 5747 5746 5746 5745 5745 5744 5744 5743 5742 5740 5739 5738 5737
5720 5720 5720 5721 5722 5722 5724 5725 5726 5727 5728 5729 5730 5731 5732 5732 5732 5734 5735 5737 5739 5740 5741 5742 5742 5743 5744 5744 5745 5745 5746 5747 5748 5749 5749 5750 5750 5751 5751 5752 5752 5753 5753 5753 5754 5754 5753 5753 5753 5753 5753 5753 5753 5752 5751 5751 5751 5750 5750 5750 5749 5749 5748 5747 5746 5746 5745 5745 5744 5744 5743 5742 5742 5741 5740 5740 5739 5738 5737 5736 5735 5734 5733 5732 5731
5717 5717 5718 5718 5719 5720 5722 5723 5724 5725 5726 5727 5728 5728 5729 5730 5732 5732 5733 5735 5736 5737 5738 5739 5739 5740 5740 5741 5741 5742 5742 5743 5744 5745 5746 5746 5747 5747 5748 5748 5749 5749 5750 5750 5750 5750 5749 5749 5749 5749 5748 5748 5748 5747 5747 5746 5746 5746 5746 5745 5744 5744 5743 5743 5742 5741 5741 5740 5740 5739 5738 5737 5736 5736 5735 5734 5733 5732 5731 5730 5729 5728 5727 5726 5725
5714 5715 5715 5716 5717 5718 5719 5721 5721 5722 5723 5725 5726 5727 5727 5729 5730 5730 5731 5732 5732 5733 5734 5735 5736 5737 5737 5737 5738 5738 5739 5739 5740 5741 5742 5743 5743 5744 5744 5745 5745 5745 5745 5745 5745 5745 5745 5745 5744 5744 5743 5743 5743 5742 5742 5741 5741 5740 5740 5740 5739 5739 5738 5737 5736 5735 5735 5735 5734 5734 5733 5732 5731 5730 5729 5728 5727 5725 5724 5723 5722 5721 5720 5719 5719
5710 5711 5712 5714 5715 5715 5717 5718 5719 5719 5721 5723 5724 5725 5726 5727 5728 5728 5730 5730 5730 5730 5731 5732 5733 5733 5733 5734 5734 5734 5735 5735 5736 5737 5737 5738 5738 5739 5739 5739 5739 5739 5740 5739 5739 5739 5739 5739 5739 5738 5738 5737 5737 5736 5736 5735 5735 5734 5734 5734 5734 5733 5732 5731 5730 5729 5729 5729 5728 5728 5727 5726 5725 5725 5724 5722 5721 5719 5717 5717 5716 5715 5714 5713 5711
5707 5708 5710 5711 5712 5713 5714 5715 5716 5716 5718 5720 5722 5723 5723 5724 5725 5726 5727 5727 5728 5728 5729 5729 5729 5730 5730 5730 5730 5730 5731 5731 5731 5732 5733 5733 5733 5733 5734 5734 5734 5734 5734 5733 5733 5733 5733 5733 5733 5732 5732 5731 5730 5730 5730 5729 5729 5728 5728 5727 5727 5727 5725 5724 5723 5723 5723 5722 5722 5721 5721 5720 5720 5719 5719 5717 5715 5713 5711 5710 5709 5708 5706 5705 5704
5704 5706 5707 5708 5709 5710 5711 5712 5713 5714 5715 5717 5718 5719 5720 5721 5722 5722 5722 5723 5724 5724 5725 5725 5726 5726 5726 5726 5726 5726 5727 5727 5727 5727 5728 5728 5728 5728 5728 5728 5728 5728 5728 5727 5727 5727 5727 5727 5727 5727 5726 5725 5724 5724 5723 5723 5723 5722 5721 5721 5721 5720 5718 5716 5716 5717 5716 5716 5715 5715 5715 5714 5713 5713 5713 5711 5709 5706 5704 5702 5701 5700 5699 5698 5698
5701 5703 5704 5705 5706 5707 5708 5709 5710 5712 5713 5713 5715 5715 5716 5717 5718 5718 5719 5719 5719 5720 5720 5721 5721 5721 5721 5721 5721 5721 5722 5722 5722 5722 5722 5722 5722 5722 5722 5722 5722 5722 5721 5721 5721 5721 5721 5721 5721 5720 5720 5719 5718 5717 5717 5717 5716 5715 5715 5714 5714 5713 5710 5709 5709 5709 5709 5709 5709 5708 5708 5707 5706 5706 5706 5705 5703 5699 5697 5695 5694 5693 5693 5692 5691
5698 5700 5701 5702 5703 5704 5705 5706 5707 5708 5709 5710 5710 5711 5712 5713 5714 5714 5715 5715 5716 5716 5716 5715 5715 5716 5716 5716 5716 5716 5716 5716 5717 5716 5716 5716 5716 5716 5716 5716 5716 5715 5715 5715 5714 5714 5714 5714 5714 5713 5713 5712 5711 5710 5710 5709 5709 5708 5707 5707 5706 5705 5703 5702 5702 5702 5701 5701 5701 5701 5700 5700 5699 5699 5699 5698 5696 5693 5691 5690 5689 5689 5688 5687 5685
5696 5697 5698 5699 5700 5701 5702 5702 5703 5704 5704 5705 5706 5706 5707 5708 5708 5709 5710 5710 5711 5711 5711 5711 5710 5711 5711 5711 5710 5710 5710 5710 5710 5710 5710 5710 5710 5710 5709 5709 5709 5709 5709 5708 5708 5708 5707 5706 5705 5705 5704 5704 5703 5702 5702 5701 5700 5700 5699 5698 5698 5697 5695 5695 5694 5694 5693 5693 5693 5693 5692 5692 5691 5692 5692 5691 5688 5686 5684 5683 5683 5683 5682 5680 5679
5692 5693 5694 5695 5696 5697 5697 5698 5699 5699 5700 5700 5701 5701 5701 5702 5702 5703 5704 5704 5705 5705 5705 5705 5705 5705 5705 5704 5704 5704 5703 5703 5703 5703 5703 5702 5702 5702 5701 5701 5701 5701 5701 5701 5700 5700 5699 5698 5697 5696 5696 5696 5695 5694 5693 5692 5692 5692 5691 5690 5689 5689 5687 5687 5686 5686 5685 5685 5685 5684 5683 5683 5682 5682 5682 5681 5680 5678 5678 5677 5676 5675 5674 5673 5673
5687 5688 5689 5690 5691 5691 5692 5692 5693 5694 5694 5695 5695 5695 5696 5696 5697 5697 5697 5698 5698 5698 5699 5699 5699 5699 5698 5698 5697 5697 5696 5696 5695 5695 5694 5694 5693 5693 5692 5692 5692 5692 5692 5692 5692 5691 5691 5690 5689 5688 5687 5687 5686 5685 5685 5685 5684 5684 5683 5682 5681 5680 5679 5678 5677 5677 5676 5676 5676 5676 5675 5674 5673 5673 5672 5672 5672 5671 5671 5670 5669 5668 5667 5667 5667
5682 5683 5684 5685 5685 5686 5686 5687 5687 5688 5689 5689 5690 5690 5690 5691 5691 5691 5692 5692 5692 5692 5692 5692 5692 5692 5691 5691 5691 5690 5689 5689 5688 5686 5686 5685 5685 5684 5684 5683 5683 5683 5683 5684 5684 5683 5683 5682 5682 5681 5680 5679 5678 5677 5677 5676 5676 5675 5675 5674 5673 5672 5671 5669 5669 5669 5668 5668 5668 5668 5667 5665 5664 5664 5665 5665 5665 5664 5663 5663 5662 5662 5662 5661 5661
5678 5679 5679 5680 5680 5681 5681 5682 5682 5682 5682 5683 5683 5684 5684 5684 5685 5685 5685 5685 5685 5685 5685 5685 5685 5685 5685 5684 5684 5682 5682 5681 5679 5678 5678 5677 5676 5676 5675 5674 5674 5674 5674 5674 5674 5674 5674 5674 5673 5672 5671 5670 5669 5668 5668 5667 5666 5666 5665 5665 5665 5664 5663 5661 5662 5662 5661 5660 5660 5659 5658 5657 5657 5657 5658 5657 5657 5657 5656 5656 5656 5656 5656 5655 5654
5671 5672 5672 5673 5674 5674 5675 5675 5676 5676 5676 5676 5677 5677 5677 5677 5677 5677 5678 5678 5678 5678 5678 5678 5677 5677 5678 5677 5676 5675 5673 5672 5670 5669 5669 5669 5668 5667 5666 5665 5664 5664 5664 5664 5664 5664 5664 5664 5664 5663 5662 5661 5660 5659 5658 5658 5657 5656 5656 5656 5656 5656 5655 5655 5656 5655 5653 5652 5652 5651 5651 5651 5651 5650 5650 5650 5650 5649 5650 5650 5649 5649 5649 5648 5648
5663 5664 5665 5666 5666 5667 5668 5668 5669 5669 5669 5670 5670 5670 5671 5671 5670 5670 5671 5671 5671 5671 5671 5671 5670 5670 5670 5670 5669 5668 5666 5664 5662 5661 5660 5660 5659 5658 5657 5656 5655 5654 5654 5654 5654 5654 5654 5654 5654 5653 5652 5651 5650 5649 5648 5648 5647 5646 5646 5646 5647 5647 5647 5649 5649 5648 5645 5644 5644 5644 5643 5643 5643 5643 5643 5643 5643 5643 5643 5643 5643 5643 5643 5643 5642
5656 5657 5658 5659 5660 5660 5661 5661 5662 5662 5662 5663 5663 5664 5664 5664 5664 5664 5664 5665 5665 5664 5664 5663 5663 5663 5663 5662 5661 5660 5658 5656 5654 5653 5652 5651 5650 5649 5648 5646 5645 5645 5644 5643 5643 5643 5644 5643 5643 5642 5642 5640 5639 5639 5638 5638 5637 5636 5636 5636 5637 5638 5640 5642 5642 5640 5637 5637 5637 5637 5636 5635 5635 5636 5637 5637 5637 5637 5637 5637 5637 5637 5637 5637 5636
5651 5652 5653 5653 5654 5654 5655 5656 5656 5656 5656 5656 5657 5657 5658 5658 5657 5657 5657 5658 5658 5657 5657 5656 5655 5655 5655 5654 5653 5652 5650 5647 5645 5644 5643 5641 5641 5640 5638 5636 5635 5634 5633 5632 5632 5632 5631 5631 5631 5630 5629 5629 5628 5628 5627 5627 5627 5626 5627 5627 5628 5630 5633 5635 5634 5632 5631 5630 5629 5629 5628 5628 5629 5630 5631 5631 5631 5631 5631 5631 5631 5631 5631 5631 5631
5647 5647 5648 5648 5649 5649 5650 5650 5651 5651 5651 5651 5651 5651 5651 5651 5650 5650 5649 5649 5650 5649 5649 5648 5647 5646 5645 5644 5643 5642 5640 5638 5635 5634 5632 5631 5630 5629 5628 5626 5624 5622 5620 5620 5620 5620 5620 5619 5619 5618 5618 5617 5616 5616 5616 5616 5616 5616 5617 5618 5619 5621 5624 5626 5626 5626 5625 5623 5622 5621 5621 5622 5623 5624 5624 5624 5624 5625 5625 5625 5625 5626 5626 5626 5626
5642 5642 5643 5643 5643 5643 5644 5644 5644 5644 5645 5645 5644 5644 5643 5643 5643 5643 5641 5641 5641 5641 5640 5639 5638 5637 5636 5635 5633 5631 5630 5628 5626 5624 5622 5620 5618 5617 5616 5615 5613 5611 5610 5609 5610 5609 5608 5608 5608 5607 5606 5606 5605 5605 5605 5605 5606 5606 5608 5609 5610 5612 5614 5616 5618 5619 5618 5616 5614 5613 5613 5614 5616 5616 5616 5617 5618 5618 5619 5619 5620 5621 5621 5621 5620
5636 5636 5636 5637 5637 5637 5637 5637 5637 5637 5638 5638 5637 5636 5635 5634 5634 5635 5634 5633 5632 5631 5631 5630 5628 5626 5625 5624 5623 5620 5618 5617 5616 5614 5612 5610 5608 5607 5605 5604 5602 5601 5600 5599 5600 5599 5598 5597 5597 5596 5596 5595 5595 5595 5595 5596 5596 5597 5598 5599 5601 5603 5604 5606 5608 5609 5608 5607 5606 5606 5606 5607 5608 5609 5609 5611 5612 5613 5613 5614 5614 5615 5615 5615 5615
5629 5629 5629 5630 5630 5629 5629 5629 5630 5630 5629 5629 5629 5628 5627 5626 5624 5624 5624 5624 5623 5622 5621 5620 5618 5616 5614 5613 5612 5611 5609 5607 5606 5604 5602 5601 5600 5598 5597 5595 5593 5591 5590 5590 5590 5589 5588 5588 5587 5586 5586 5586 5586 5586 5587 5588 5588 5589 5590 5590 5592 5593 5595 5597 5598 5598 5598 5598 5599 5599 5599 5600 5601 5602 5604 5605 5607 5607 5608 5608 5609 5609 5609 5610 5610
5622 5622 5622 5622 5622 5622 5621 5621 5622 5621 5621 5621 5620 5619 5619 5618 5616 5615 5615 5614 5614 5613 5612 5611 5610 5608 5606 5605 5604 5603 5601 5599 5597 5596 5594 5593 5592 5590 5589 5587 5585 5583 5581 5580 5580 5579 5579 5578 5578 5577 5577 5577 5578 5579 5580 5581 5582 5582 5582 5583 5584 5585 5587 5588 5589 5590 5590 5591 5591 5592 5592 5594 5595 5597 5598 5599 5600 5602 5602 5603 5603 5603 5603 5604 5604
5614 5614 5615 5615 5614 5614 5614 5614 5614 5614 5613 5613 5612 5612 5611 5610 5609 5608 5607 5606 5606 5605 5604 5604 5603 5601 5599 5598 5597 5596 5594 5592 5591 5589 5588 5586 5585 5583 5581 5579 5577 5575 5573 5572 5570 5569 5569 5568 5568 5568 5568 5568 5570 5571 5573 5575 5575 5576 5576 5577 5578 5579 5580 5581 5582 5582 5583 5584 5585 5586 5587 5588 5589 5591 5591 5593 5594 5596 5597 5598 5598 5598 5598 5599 5599
5607 5607 5608 5608 5607 5607 5607 5607 5607 5607 5607 5606 5605 5605 5604 5604 5603 5602 5601 5600 5599 5598 5597 5597 5596 5595 5593 5592 5590 5589 5588 5586 5585 5583 5582 5580 5578 5576 5574 5571 5569 5567 5565 5562 5560 5558 5557 5557 5557 5558 5558 5558 5560 5562 5565 5567 5568 5569 5570 5572 5573 5574 5574 5575 5576 5576 5577 5578 5579 5580 5581 5583 5584 5584 5586 5587 5589 5590 5591 5592 5593 5593 5593 5594 5595
5601 5601 5601 5602 5601 5601 5601 5601 5601 5601 5601 5600 5599 5599 5599 5598 5598 5597 5595 5594 5593 5593 5592 5591 5590 5590 5588 5586 5585 5583 5582 5580 5579 5577 5575 5574 5572 5569 5567 5564 5561 5558 5556 5553 5550 5548 5546 5545 5545 5546 5546 5547 5550 5552 5555 5559 5561 5562 5564 5566 5567 5568 5569 5569 5571 5572 5572 5573 5573 5574 5576 5577 5578 5579 5580 5582 5584 5585 5586 5587 5587 5588 5589 5590 5591
5596 5596 5596 5596 5596 5596 5596 5596 5596 5596 5595 5595 5594 5594 5593 5593 5592 5591 5591 5590 5589 5588 5587 5586 5586 5585 5584 5582 5580 5579 5577 5575 5574 5572 5570 5568 5565 5563 5560 5557 5554 5551 5548 5545 5542 5539 5537 5535 5534 5534 5535 5538 5542 5545 5547 5549 5552 5555 5557 5560 5561 5562 5563 5564 5566 5567 5568 5569 5570 5570 5571 5572 5573 5574 5576 5577 5579 5581 5581 5581 5582 5584 5585 5586 5587
5591 5591 5591 5591 5591 5591 5591 5591 5591 5591 5591 5590 5589 5589 5589 5589 5588 5587 5587 5586 5585 5584 5583 5582 5581 5580 5579 5578 5576 5575 5573 5571 5569 5567 5565 5562 5559 5557 5554 5551 5549 5546 5542 5539 5536 5533 5530 5528 5527 5527 5528 5532 5537 5540 5541 5542 5545 5548 5551 5553 5555 5555 5557 5559 5561 5563 5565 5566 5566 5567 5568 5569 5569 5570 5572 5574 5575 5576 5576 5577 5578 5580 5581 5582 5582
5587 5587 5587 5587 5587 5587 5587 5587 5587 5587 5587 5586 5586 5585 5585 5585 5584 5584 5583 5583 5582 5581 5580 5579 5578 5577 5575 5574 5573 5571 5569 5567 5565 5562 5560 5557 5554 5552 5549 5547 5544 5541 5538 5535 5532 5529 5527 5524 5523 5523 5525 5528 5532 5535 5537 5538 5541 5544 5546 5547 5548 5550 5552 5555 5557 5559 5561 5562 5562 5563 5564 5565 5565 5567 5568 5569 5570 5571 5571 5573 5575 5576 5577 5578 5578
5584 5584 5583 5583 5583 5584 5584 5584 5584 5584 5583 5583 5582 5582 5582 5582 5581 5581 5580 5579 5578 5578 5577 5576 5574 5573 5572 5570 5569 5567 5565 5563 5561 5558 5556 5553 5550 5548 5545 5542 5540 5537 5534 5532 5529 5526 5524 5523 5522 5522 5523 5526 5528 5531 5533 5536 5538 5540 5541 5542 5543 5546 5548 5551 5554 5556 5557 5557 5558 5558 5559 5560 5562 5563 5563 5564 5565 5566 5568 5570 5571 5572 5573 5573 5573
5580 5580 5580 5580 5580 5580 5580 5581 5581 5580 5580 5580 5580 5579 5579 5579 5578 5578 5577 5576 5575 5574 5573 5572 5571 5570 5569 5567 5566 5564 5562 5559 5557 5555 5552 5550 5547 5545 5542 5538 5535 5533 5531 5529 5526 5524 5522 5521 5521 5522 5523 5525 5527 5529 5531 5533 5535 5536 5537 5539 5540 5543 5546 5548 5551 5552 5553 5553 5554 5555 5556 5557 5558 5558 5559 5560 5562 5563 5565 5567 5568 5568 5569 5569 5569
5576 5577 5577 5577 5577 5577 5577 5578 5578 5578 5577 5577 5577 5576 5576 5576 5575 5575 5574 5573 5572 5571 5570 5569 5568 5567 5565 5564 5562 5560 5558 5556 5554 5551 5549 5547 5544 5542 5539 5535 5532 5529 5528 5526 5524 5521 5519 5519 5520 5521 5522 5524 5526 5527 5529 5530 5532 5534 5535 5537 5538 5540 5543 5545 5547 5549 5550 5551 5551 5552 5553 5554 5555 5556 5557 5558 5560 5561 5562 5563 5564 5565 5565 5565 5564
5573 5573 5574 5574 5574 5574 5575 5575 5575 5575 5575 5575 5574 5574 5573 5573 5572 5572 5571 5570 5569 5568 5567 5566 5565 5564 5562 5561 5559 5557 5555 5553 5551 5548 5546 5544 5541 5539 5536 5533 5529 5527 5525 5524 5522 5520 5519 5518 5520 5521 5522 5523 5524 5526 5527 5529 5531 5532 5534 5535 5536 5538 5540 5542 5544 5546 5547 5548 5549 5550 5551 5551 5552 5553 5555 5556 5557 5558 5559 5560 5560 5561 5561 5560 5560
5570 5571 5571 5571 5572 5572 5572 5572 5572 5572 5572 5572 5571 5571 5570 5570 5570 5569 5568 5568 5567 5566 5564 5563 5562 5561 5559 5558 5556 5554 5552 5550 5548 5545 5543 5540 5538 5536 5533 5531 5527 5525 5524 5523 5522 5521 5520 5519 5520 5521 5522 5522 5524 5525 5527 5528 5530 5531 5532 5534 5535 5536 5538 5539 5541 5542 5544 5545 5546 5547 5548 5549 5550 5551 5552 5553 5554 5555 5555 5556 5556 5557 5557 5557 5556
5567 5568 5568 5569 5569 5569 5569 5569 5570 5570 5569 5569 5569 5568 5568 5567 5567 5566 5565 5565 5564 5563 5562 5560 5559 5558 5556 5555 5553 5551 5549 5547 5545 5543 5540 5538 5536 5533 5531 5528 5526 5524 5522 5522 5521 5521 5521 5520 5521 5521 5522 5523 5524 5525 5526 5527 5529 5530 5532 5533 5533 5534 5536 5537 5538 5540 5541 5542 5543 5544 5545 5546 5547 5548 5549 5550 5550 5551 5552 5552 5553 5553 5553 5553 5552
5565 5565 5566 5566 5566 5567 5567 5567 5567 5567 5567 5567 5566 5566 5565 5565 5564 5563 5563 5562 5561 5560 5559 5557 5556 5555 5553 5552 5550 5548 5547 5545 5543 5541 5538 5536 5534 5532 5530 5527 5525 5523 5521 5521 5521 5520 5520 5521 5521 5521 5522 5523 5523 5524 5525 5526 5528 5529 5530 5531 5532 5533 5534 5535 5536 5537 5538 5539 5540 5541 5542 5543 5544 5545 5546 5546 5546 5547 5548 5548 5549 5549 5549 5549 5549
5562 5562 5563 5563 5564 5564 5564 5564 5564 5564 5564 5564 5564 5563 5563 5562 5562 5561 5560 5559 5558 5557 5556 5554 5553 5551 5550 5548 5547 5545 5544 5542 5540 5538 5536 5534 5533 5531 5529 5527 5524 5522 5520 5520 5519 5520 5520 5520 5521 5521 5522 5522 5523 5524 5524 5526 5527 5528 5529 5529 5530 5531 5532 5533 5534 5535 5536 5536 5537 5538 5539 5540 5541 5541 5542 5542 5542 5543 5544 5544 5545 5545 5545 5545 5545
5559 5560 5560 5561 5561 5561 5562 5562 5562 5562 5562 5562 5561 5561 5561 5560 5559 5558 5557 5556 5555 5554 5553 5552 5550 5549 5547 5545 5544 5542 5540 5539 5537 5536 5534 5532 5530 5529 5528 5526 5524 5521 5520 5519 5518 5518 5519 5519 5520 5520 5521 5522 5522 5523 5524 5525 5525 5526 5527 5528 5529 5529 5530 5531 5532 5533 5533 5533 5534 5534 5535 5536 5537 5537 5538 5538 5539 5540 5540 5541 5541 5542 5542 5542 5542
5557 5557 5558 5558 5558 5559 5559 5559 5560 5560 5559 5559 5559 5559 5558 5558 5557 5556 5555 5554 5553 5552 5551 5549 5548 5546 5545 5543 5541 5539 5537 5536 5534 5533 5531 5529 5528 5527 5526 5524 5523 5521 5520 5518 5517 5517 5517 5518 5519 5519 5520 5520 5521 5522 5522 5523 5524 5524 5525 5526 5527 5527 5528 5529 5529 5530 5530 5531 5531 5531 5532 5532 5533 5534 5535 5535 5536 5537 5537 5538 5538 5539 5539 5540 5540
5554 5555 5555 5555 5556 5556 5557 5557 5557 5557 5557 5557 5557 5556 5556 5555 5554 5554 5553 5552 5551 5550 5548 5547 5546 5544 5542 5540 5538 5536 5534 5533 5531 5530 5528 5527 5525 5524 5524 5523 5521 5520 5519 5518 5517 5516 5516 5517 5517 5518 5518 5519 5519 5520 5520 5521 5522 5522 5523 5524 5525 5526 5526 5527 5527 5527 5528 5528 5528 5529 5529 5530 5531 5532 5532 5533 5534 5534 5535 5535 5536 5536 5537 5537 5537